Location: *
(23.5860°S, 65.4036°W)
Time: 02:11:23
(UTC+00:00)

YAOGAN 6 - Pass Details

Date: 25 August 2019
Orbit: 468 x 504 km, 97.1° (Epoch: 16 September)

Event Time Altitude Azimuth Distance (km) Brightness Sun altitude
Exits shadow 22:51:04 - 146° (SE) 2,067 5.4 -10.4°
Reaches altitude 10° 22:52:13 10° 137° (SE) 1,649 4.8 -10.7°
Maximum altitude 22:55:05 23° 83° (E) 1,048 3.7 -11.3°
Drops below altitude 10° 22:57:55 10° 28° (NNE) 1,624 5.0 -12.0°
Sets 23:00:14 0° 13° (NNE) 2,490 6.1 -12.5°
